EW1033 Weather Reports


Display with metric or nautical units.
time (UTC)temp
F
wind
direction
speed
MPH
gust
MPH
rain 1hr
in
rain 24hr
in
rain mn
in
humidity
%
barometer
mb
20180622222000 105 260 3.0 19.0 0.00 0.00 0.00 5 1007.5
20180622220459 106 271 7.0 15.0 0.00 0.00 0.00 6 1007.7
20180622214957 105 286 8.0 16.0 0.00 0.00 0.00 6 1008.0
20180622213453 104 224 0.0 10.0 0.00 0.00 0.00 7 1008.2
20180622211953 104 297 4.0 14.0 0.00 0.00 0.00 8 1008.4
20180622210454 103 240 4.0 11.0 0.00 0.00 0.00 8 1008.7
20180622204951 103 231 6.0 10.0 0.00 0.00 0.00 9 1008.8
20180622203446 104 268 9.0 17.0 0.00 0.00 0.00 9 1009.1
20180622201944 103 265 4.0 14.0 0.00 0.00 0.00 9 1009.4
20180622200440 102 259 7.0 15.0 0.00 0.00 0.00 9 1009.6
20180622194937 102 252 7.0 16.0 0.00 0.00 0.00 10 1009.8
20180622193435 101 223 2.0 14.0 0.00 0.00 0.00 10 1010.0
20180622191936 102 271 7.0 16.0 0.00 0.00 0.00 10 1010.2
20180622190433 101 231 4.0 12.0 0.00 0.00 0.00 11 1010.4
20180622184933 100 269 6.0 10.0 0.00 0.00 0.00 12 1010.6
20180622183426 99 274 4.0 8.0 0.00 0.00 0.00 14 1010.7
20180622181924 98 262 1.0 9.0 0.00 0.00 0.00 14 1010.8
20180622180420 97 296 2.0 7.0 0.00 0.00 0.00 14 1011.0
20180622174917 96 249 0.0 7.0 0.00 0.00 0.00 15 1011.0
20180622173415 95 267 0.0 4.0 0.00 0.00 0.00 17 1011.2
20180622171911 94 269 0.0 6.0 0.00 0.00 0.00 17 1011.3
20180622170405 93 290 0.0 7.0 0.00 0.00 0.00 18 1011.4
20180622164901 92 311 0.0 4.0 0.00 0.00 0.00 19 1011.5
20180622163357 91 315 0.0 4.0 0.00 0.00 0.00 20 1011.6
20180622161854 90 332 0.0 3.0 0.00 0.00 0.00 20 1011.8
20180622160348 89 334 0.0 5.0 0.00 0.00 0.00 21 1011.9
20180622154845 88 338 0.0 4.0 0.00 0.00 0.00 21 1011.9
20180622153339 86 350 1.0 5.0 0.00 0.00 0.00 26 1011.9
20180622151835 84 14 2.0 5.0 0.00 0.00 0.00 28 1012.0
20180622150331 83 36 0.0 0.0 0.00 0.00 0.00 30 1011.9
20180622144828 83 36 0.0 0.0 0.00 0.00 0.00 28 1011.7
20180622143322 80 36 0.0 2.0 0.00 0.00 0.00 32 1011.7
20180622141818 78 36 0.0 0.0 0.00 0.00 0.00 32 1011.5
20180622140313 76 34 0.0 0.0 0.00 0.00 0.00 38 1011.5
20180622134809 73 33 0.0 0.0 0.00 0.00 0.00 42 1011.3
20180622133310 70 33 0.0 0.0 0.00 0.00 0.00 50 1011.2
20180622131803 67 33 0.0 0.0 0.00 0.00 0.00 51 1011.0
20180622130301 65 33 0.0 0.0 0.00 0.00 0.00 53 1011.0
20180622124756 65 33 0.0 0.0 0.00 0.00 0.00 52 1010.8
20180622123252 65 33 0.0 0.0 0.00 0.00 0.00 49 1010.6
20180622121750 67 33 0.0 1.0 0.00 0.00 0.00 42 1010.6
20180622120252 66 33 0.0 0.0 0.00 0.00 0.00 47 1010.5
20180622114747 67 33 0.0 0.0 0.00 0.00 0.00 45 1010.4
20180622113246 68 33 0.0 0.0 0.00 0.00 0.00 43 1010.2
20180622111745 68 33 0.0 2.0 0.00 0.00 0.00 42 1010.2
20180622110246 68 33 0.0 2.0 0.00 0.00 0.00 44 1010.3
20180622104742 68 33 0.0 0.0 0.00 0.00 0.00 43 1010.3
20180622103240 69 33 0.0 2.0 0.00 0.00 0.00 42 1010.4
20180622101743 70 33 0.0 0.0 0.00 0.00 0.00 41 1010.4
20180622100239 69 33 0.0 3.0 0.00 0.00 0.00 42 1010.4
20180622094738 69 33 0.0 0.0 0.00 0.00 0.00 42 1010.5
20180622093237 70 33 0.0 0.0 0.00 0.00 0.00 43 1010.4
20180622091738 70 33 0.0 0.0 0.00 0.00 0.00 41 1010.3
20180622090233 71 33 0.0 0.0 0.00 0.00 0.00 39 1010.3
20180622084729 72 33 0.0 3.0 0.00 0.00 0.00 37 1010.2
20180622083228 72 33 1.0 4.0 0.00 0.00 0.00 38 1010.2
20180622081730 72 33 0.0 0.0 0.00 0.00 0.00 39 1010.1
20180622080226 73 33 0.0 0.0 0.00 0.00 0.00 36 1010.2
20180622074722 74 33 0.0 4.0 0.00 0.00 0.00 34 1010.3
20180622073220 74 32 0.0 4.0 0.00 0.00 0.00 34 1010.0
20180622071723 75 32 2.0 4.0 0.00 0.00 0.00 32 1010.1
20180622070216 75 32 2.0 3.0 0.00 0.00 0.00 34 1010.0
20180622064718 75 32 0.0 5.0 0.00 0.00 0.00 35 1010.0
20180622063217 74 26 0.0 0.0 0.00 0.00 0.00 36 1010.0
20180622061715 76 26 0.0 0.0 0.00 0.00 0.00 36 1010.0
20180622060214 77 26 0.0 3.0 0.00 0.00 0.00 33 1010.0
20180622054717 78 23 0.0 0.0 0.00 0.00 0.00 29 1009.9
20180622053213 78 23 0.0 0.0 0.00 0.00 0.00 30 1009.9
20180622051715 79 22 0.0 0.0 0.00 0.00 0.00 29 1009.8
20180622050212 80 22 0.0 0.0 0.00 0.00 0.00 27 1009.7
20180622044711 82 22 0.0 0.0 0.00 0.00 0.00 25 1009.8
20180622043209 83 22 0.0 0.0 0.00 0.00 0.00 23 1009.7
20180622041707 84 297 0.0 0.0 0.00 0.00 0.00 22 1009.6
20180622040210 85 269 0.0 0.0 0.00 0.00 0.00 21 1009.3
20180622034706 86 269 0.0 0.0 0.00 0.00 0.00 20 1009.2
20180622033206 87 269 0.0 0.0 0.00 0.00 0.00 18 1009.0
20180622031706 90 269 0.0 0.0 0.00 0.00 0.00 17 1008.9
20180622030205 92 269 0.0 7.0 0.00 0.00 0.00 14 1008.8
20180622024704 94 272 0.0 7.0 0.00 0.00 0.00 14 1008.8
20180622023208 95 274 1.0 9.0 0.00 0.00 0.00 13 1008.8
20180622021704 96 279 4.0 11.0 0.00 0.00 0.00 13 1008.8
20180622020204 98 271 6.0 11.0 0.00 0.00 0.00 12 1008.8
20180622014702 99 254 6.0 14.0 0.00 0.00 0.00 11 1008.6
20180622013201 100 267 5.0 14.0 0.00 0.00 0.00 11 1008.7
20180622011701 101 284 7.0 15.0 0.00 0.00 0.00 10 1008.7
20180622010200 102 274 8.0 16.0 0.00 0.00 0.00 11 1008.7
20180622004658 102 264 8.0 16.0 0.00 0.00 0.00 10 1008.5
20180622003201 103 275 6.0 15.0 0.00 0.00 0.00 10 1008.6
20180622001657 103 287 8.0 19.0 0.00 0.00 0.00 9 1008.6
20180622000159 104 257 5.0 15.0 0.00 0.00 0.00 10 1008.7
20180621234656 104 272 9.0 16.0 0.00 0.00 0.00 10 1008.9
20180621233155 104 256 8.0 15.0 0.00 0.00 0.00 10 1009.0
20180621231654 104 257 4.0 13.0 0.00 0.00 0.00 9 1009.2
20180621230150 104 254 4.0 13.0 0.00 0.00 0.00 9 1009.4
20180621224648 105 252 6.0 13.0 0.00 0.00 0.00 10 1009.5
20180621223146 104 278 7.0 13.0 0.00 0.00 0.00 10 1009.7